カタログに戻る

STARLINK-35989

運用中通信VLEO
NORAD 66819·PAYLOAD·🇺🇸 United States

打ち上げ Dec 1, 2025 から Cape Canaveral Space Force Station

Loading…

次のパス (今後24時間)

TLE

最新Source: CelesTrak SupGP

元期: Sep 14, 2026, 21:30 UTC

1 66819C 25278AE  26257.89631944 -.00047319  00000+0 -17140-2 0  2577
2 66819  43.0022 125.8991 0001235 270.1523 136.7150 15.27599999    18

AllMySatでSTARLINK-35989をリアルタイム追跡

Download on the App Store